User: anonymous   Login
Location: Montr�al
(45.5000°N, 73.5830°W)
Time: 10:07:23
(UTC-05:00)
Language:

Cosmos 1151 Rocket - Orbit

View from above orbital plane
View from above orbital plane
View from above satellite
View from above satellite

Ground track
Ground track

The orbit data is extracted from the following two-line orbital elements,

1 11672U 80005B   16037.50706750  .00000309  00000-0  31051-4 0  9993
2 11672  82.5158 188.1204 0017282 161.1843 199.0017 14.87739293949547
Epoch (UTC): 06 February 2016 12:10:10
Eccentricity: 0.0017282
inclination: 82.5158°
perigee height: 593 km
apogee height: 617 km
right ascension of ascending node: 188.1204°
argument of perigee: 161.1843°
revolutions per day: 14.87739293
mean anomaly at epoch: 199.0017°
orbit number at epoch: 94954

The dashed part of the orbit path shows where the satellite is in the earth's shadow,  

DLR